Airfield :
LOGIN :

Register | Disclaimer

   EN    FR    IT 

 










Legend :    VFR   Marginal VFR   IFR   Intensive IFR   Very Intensive IFR
Visi :
Ceiling :
>= 8 km
>= 3000ft
5 to 8 km
1000 to 3000 ft
1500m to 5 km
500 to 1000 ft
800 to 1500m
200 to 500 ft
< 800m
< 200 ft
Symbols :   Thunderstorms  Fog  Heavy snow  Heavy precipitations  Wind > 20 kt
SIGMETs :     Misc.  Thunderstorms  Icing  Turbulence  Mountain Waves  Volcanic Ashes






- Airport Elevation : 13 ft
- IATA code : LYX


EGMD - Lydd

CURRENT METAR :
  • 131720Z 23004KT CAVOK 24/13 Q1025

EXPIRED METARs :
  • 131650Z 22004KT 190V260 CAVOK 23/13 Q1025
  • 131620Z 24006KT CAVOK 23/13 Q1026
  • 131550Z 24006KT 200V260 CAVOK 23/13 Q1026
  • 131520Z 21008KT CAVOK 22/14 Q1026
  • 131450Z 21009KT CAVOK 22/14 Q1026

TAF TAF EGMD
Valid from the 13 at 15:00 until the 14 at 00:00 UTC


131357Z 1315/1324 20008KT 9999 FEW045
ATIS : +44 1797 322 422



MET'MAP, your aeronautical weather chart ! - Copyright ORBIFLY December 2007 - Disclaimer

ORBIFLY MET'MAP TEAM :

Programming & Development : Alexandra Zaïnal
Concept & original design : Baudouin d'Aumeries
Assistance for programming : Marc-Olivier Méhu
Technical & hardware support : Manuel Goepfert

Contact : metmap@orbifly.com




SOURCES & CREDITS :

   NOAA